Location: Caltech
(34.1382°N, 118.1253°W)
Time: 15:09:01
(UTC-07:00)

Cosmos 1980 Rocket - Visible Passes

Search period start: 06 July 2015 00:00
Search period end: 16 July 2015 00:00
Orbit: 829 x 850 km, 71.0° (Epoch: 06 July)

Date Brightness Start Highest point End Pass type
(mag) Time Alt. Az. Time Alt. Az. Time Alt. Az.
06 Jul 2.6 21:01:51 10° N 21:07:14 46° ENE 21:11:29 16° SE visible
06 Jul 4.2 22:46:56 10° NW 22:50:55 19° WSW 22:53:17 15° SW visible
07 Jul 2.7 20:46:16 10° N 20:51:34 43° ENE 20:56:35 11° SE visible
07 Jul 4.1 22:31:08 10° NW 22:35:18 21° WSW 22:38:23 13° SW visible
08 Jul 2.8 20:30:40 10° N 20:35:55 40° ENE 20:41:09 10° SE visible
08 Jul 4.1 22:15:21 10° NW 22:19:41 22° WSW 22:23:31 11° SSW visible
09 Jul 4.0 21:59:35 10° NW 22:04:04 24° WSW 22:08:23 10° SSW visible
10 Jul 4.0 21:43:50 10° NW 21:48:27 26° WSW 21:52:55 10° SSW visible
11 Jul 3.9 21:28:06 10° NW 21:32:50 28° WSW 21:37:26 10° SSW visible
12 Jul 3.8 21:12:21 10° NW 21:17:13 30° WSW 21:21:57 10° SSW visible
13 Jul 3.8 20:56:38 10° NW 21:01:36 32° WSW 21:06:27 10° SSW visible
14 Jul 3.7 20:40:55 10° NW 20:45:58 35° WSW 20:50:56 10° SSW visible
15 Jul 3.6 20:25:13 10° NW 20:30:21 37° WSW 20:35:24 10° S visible
